WB8ZTP Weather Reports


time (UTC)temp
C
wind
direction
speed
KPH
gust
KPH
rain 1hr
cm
rain 24hr
cm
rain mn
cm
humidity
%
barometer
mb
20260508114519 7 199 6.4 11.3 0.00 0.00 0.00 76 1016.5
20260508113018 7 228 4.8 11.3 0.00 0.00 0.00 77 1016.5
20260508111518 7 207 3.2 11.3 0.00 0.00 0.00 78 1016.2
20260508110019 6 183 3.2 9.7 0.00 0.00 0.00 79 1016.2
20260508104517 6 198 3.2 9.7 0.00 0.00 0.00 81 1016.0
20260508103014 6 177 0.0 6.4 0.00 0.00 0.00 82 1015.9
20260508101516 6 212 0.0 6.4 0.00 0.00 0.00 82 1015.9
20260508100018 6 196 0.0 3.2 0.00 0.00 0.00 81 1015.8
20260508094511 6 200 0.0 6.4 0.00 0.00 0.00 81 1015.8
20260508093010 6 194 0.0 6.4 0.00 0.00 0.00 81 1015.8
20260508091509 6 194 0.0 4.8 0.00 0.00 0.00 81 1016.0
20260508090008 6 182 1.6 6.4 0.00 0.00 0.00 82 1016.0
20260508084507 6 202 1.6 6.4 0.00 0.00 0.00 81 1015.9
20260508083006 6 232 0.0 6.4 0.00 0.00 0.00 81 1015.9
20260508081513 6 179 0.0 0.0 0.00 0.00 0.00 79 1016.0
20260508080005 7 179 0.0 0.0 0.00 0.00 0.00 76 1016.0
20260508074502 8 179 0.0 0.0 0.00 0.00 0.00 75 1016.1
20260508073002 8 179 0.0 0.0 0.00 0.00 0.00 75 1016.3
20260508071502 8 178 0.0 3.2 0.00 0.00 0.00 74 1016.6
20260508070104 8 198 0.0 4.8 0.00 0.00 0.00 75 1016.6
20260508064600 8 9 0.0 6.4 0.00 0.00 0.00 70 1016.7
20260508063106 8 210 0.0 6.4 0.00 0.00 0.00 72 1016.8
20260508061557 8 188 0.0 4.8 0.00 0.00 0.00 72 1016.6
20260508060057 8 187 0.0 4.8 0.00 0.00 0.00 73 1016.2
20260508054552 8 184 0.0 4.8 0.00 0.00 0.00 73 1016.4
20260508053051 7 198 0.0 4.8 0.00 0.00 0.00 74 1016.4
20260508051547 7 184 0.0 4.8 0.00 0.00 0.00 76 1016.5
20260508050043 7 204 0.0 8.0 0.00 0.00 0.00 82 1016.6
20260508044540 6 159 0.0 0.0 0.00 0.00 0.00 86 1016.7
20260508043040 6 283 0.0 0.0 0.00 0.00 0.00 86 1016.8
20260508041537 6 283 0.0 0.0 0.00 0.00 0.00 86 1016.6
20260508040042 6 283 0.0 0.0 0.00 0.00 0.00 86 1016.6
20260508034535 5 283 0.0 0.0 0.00 0.00 0.00 86 1016.7
20260508033034 5 283 0.0 0.0 0.00 0.00 0.00 85 1016.5
20260508031536 5 283 0.0 0.0 0.00 0.00 0.00 85 1016.6
20260508030034 5 283 0.0 0.0 0.00 0.00 0.00 84 1016.6
20260508024545 6 283 0.0 0.0 0.00 0.00 0.00 84 1016.6
20260508023033 6 283 0.0 0.0 0.00 0.00 0.00 84 1016.7
20260508021532 6 283 0.0 0.0 0.00 0.00 0.00 84 1016.5
20260508020031 6 283 0.0 0.0 0.00 0.00 0.00 82 1016.5
20260508014539 6 283 0.0 0.0 0.00 0.00 0.00 80 1016.5
20260508013030 7 283 0.0 0.0 0.00 0.00 0.00 78 1016.5
20260508011530 7 283 0.0 0.0 0.00 0.00 0.00 76 1016.4
20260508010035 8 283 0.0 0.0 0.00 0.00 0.00 75 1016.1
20260508004533 8 283 0.0 0.0 0.00 0.00 0.00 69 1016.1
20260508003030 10 283 0.0 0.0 0.00 0.00 0.00 64 1016.0
20260508001530 11 283 0.0 1.6 0.00 0.00 0.00 59 1015.9
20260508000027 11 321 0.0 1.6 0.00 0.00 0.00 56 1015.8
20260507234528 12 322 0.0 8.0 0.00 0.00 0.00 50 1015.8
20260507233038 12 5 3.2 8.0 0.00 0.00 0.00 47 1015.7
20260507231534 13 360 3.2 12.9 0.00 0.00 0.00 46 1015.7
20260507230027 13 319 8.0 14.5 0.00 0.00 0.00 45 1015.7
20260507224531 13 36 3.2 14.5 0.00 0.00 0.00 44 1015.8
20260507223025 13 288 4.8 16.1 0.00 0.00 0.00 44 1015.9
20260507221534 13 5 4.8 12.9 0.00 0.00 0.00 45 1015.9
20260507220023 13 266 4.8 20.9 0.00 0.00 0.00 48 1015.7
20260507214523 13 5 4.8 14.5 0.00 0.00 0.00 45 1015.7
20260507213024 14 211 6.4 12.9 0.00 0.00 0.00 46 1015.5
20260507211524 14 311 3.2 14.5 0.00 0.00 0.00 47 1015.5
20260507210022 13 252 3.2 14.5 0.00 0.00 0.00 50 1015.3
20260507204519 13 213 3.2 16.1 0.00 0.00 0.00 48 1015.2
20260507203023 13 348 6.4 19.3 0.00 0.00 0.00 48 1015.1
20260507201521 13 325 4.8 14.5 0.00 0.00 0.00 49 1015.3
20260507200016 14 225 6.4 19.3 0.00 0.00 0.00 47 1015.3
20260507194518 13 196 1.6 20.9 0.00 0.00 0.00 52 1015.2
20260507193014 13 11 4.8 17.7 0.00 0.00 0.00 52 1015.2
20260507191513 14 355 3.2 12.9 0.00 0.00 0.00 51 1015.5
20260507190011 13 290 4.8 16.1 0.00 0.00 0.00 52 1015.4
20260507184509 13 235 4.8 12.9 0.00 0.00 0.00 48 1015.4
20260507183011 13 240 6.4 14.5 0.00 0.00 0.00 51 1015.4
20260507181506 13 290 8.0 17.7 0.00 0.00 0.00 48 1015.5
20260507180004 13 225 4.8 14.5 0.00 0.00 0.00 52 1015.5
20260507174501 12 328 8.0 17.7 0.00 0.00 0.00 49 1015.7
20260507173104 12 287 8.0 17.7 0.00 0.00 0.00 48 1015.9
20260507171606 12 251 9.7 17.7 0.00 0.00 0.00 48 1016.0
20260507170104 12 262 6.4 17.7 0.00 0.00 0.00 52 1016.1
20260507164604 12 221 8.0 16.1 0.00 0.00 0.00 53 1016.1
20260507163057 12 317 4.8 20.9 0.00 0.00 0.00 52 1016.2
20260507161556 12 9 4.8 17.7 0.00 0.00 0.00 53 1016.2
20260507160055 11 267 3.2 17.7 0.00 0.00 0.00 54 1016.2
20260507154554 11 194 3.2 9.7 0.00 0.00 0.00 54 1016.1
20260507153050 11 200 4.8 11.3 0.00 0.00 0.00 57 1016.1
20260507151548 11 173 6.4 14.5 0.00 0.00 0.00 59 1016.0
20260507150045 10 223 6.4 12.9 0.00 0.00 0.00 60 1016.2
20260507144543 10 249 4.8 11.3 0.00 0.00 0.00 61 1016.2
20260507143041 10 355 3.2 9.7 0.00 0.00 0.00 62 1016.3
20260507141542 10 295 1.6 11.3 0.00 0.00 0.00 63 1016.3
20260507140037 10 229 3.2 9.7 0.00 0.00 0.00 68 1016.4
20260507134537 9 198 3.2 9.7 0.00 0.00 0.00 69 1016.5
20260507133037 8 26 1.6 9.7 0.00 0.00 0.00 72 1016.7
20260507131536 8 355 1.6 8.0 0.00 0.00 0.00 73 1016.7
20260507130027 8 264 1.6 8.0 0.00 0.00 0.00 75 1016.7
20260507124530 8 171 1.6 8.0 0.00 0.00 0.00 77 1016.7
20260507123021 7 236 1.6 8.0 0.00 0.00 0.00 79 1016.6
20260507121517 7 344 0.0 8.0 0.00 0.00 0.00 81 1016.6
20260507120017 6 260 0.0 8.0 0.00 0.00 0.00 85 1016.8